| time (UTC) | temp F | wind direction | speed knots | gust knots | rain 1hr in | rain 24hr in | rain mn in | humidity % | barometer mb |
| 20260831203014 | 76 | 252 | 0.0 | 1.7 | 0.00 | 0.00 | 0.00 | 40 | 1009.5 |
| 20260831201526 | 77 | 304 | 0.0 | 3.5 | 0.00 | 0.00 | 0.00 | 38 | 1009.7 |
| 20260831200016 | 74 | 117 | 0.0 | 2.6 | 0.00 | 0.00 | 0.00 | 42 | 1009.7 |
| 20260831194506 | 73 | 321 | 0.0 | 1.7 | 0.00 | 0.00 | 0.00 | 42 | 1009.9 |
| 20260831193007 | 72 | 223 | 0.0 | 2.6 | 0.00 | 0.00 | 0.00 | 45 | 1010.1 |
| 20260831191503 | 73 | 302 | 0.0 | 1.7 | 0.00 | 0.00 | 0.00 | 43 | 1010.3 |
| 20260831190039 | 71 | 80 | 0.0 | 0.9 | 0.00 | 0.00 | 0.00 | 50 | 1010.6 |
| 20260831184522 | 71 | 302 | 0.0 | 2.6 | 0.00 | 0.00 | 0.00 | 51 | 1010.8 |
| 20260831183025 | 69 | 285 | 0.0 | 1.7 | 0.00 | 0.00 | 0.00 | 53 | 1011.0 |
| 20260831181514 | 69 | 298 | 0.0 | 1.7 | 0.00 | 0.00 | 0.00 | 53 | 1011.0 |
| 20260831180012 | 68 | 124 | 0.0 | 2.6 | 0.00 | 0.00 | 0.00 | 55 | 1011.2 |
| 20260831174506 | 67 | 124 | 0.0 | 1.7 | 0.00 | 0.00 | 0.00 | 58 | 1011.4 |
| 20260831173003 | 66 | 133 | 0.0 | 0.9 | 0.00 | 0.00 | 0.00 | 59 | 1011.5 |
| 20260831171527 | 65 | 133 | 0.0 | 1.7 | 0.00 | 0.00 | 0.00 | 61 | 1011.5 |
| 20260831170026 | 63 | 163 | 0.0 | 0.0 | 0.00 | 0.00 | 0.00 | 64 | 1011.8 |
| 20260831164530 | 62 | 128 | 0.0 | 2.6 | 0.00 | 0.00 | 0.00 | 66 | 1012.0 |
| 20260831163037 | 60 | 134 | 0.0 | 0.0 | 0.00 | 0.00 | 0.00 | 68 | 1012.1 |
| 20260831161519 | 59 | 138 | 0.0 | 0.9 | 0.00 | 0.00 | 0.00 | 69 | 1012.3 |
| 20260831160028 | 58 | 128 | 0.0 | 0.0 | 0.00 | 0.00 | 0.00 | 72 | 1012.3 |
| 20260831154539 | 56 | 82 | 0.0 | 0.0 | 0.00 | 0.00 | 0.00 | 74 | 1012.3 |
| 20260831153033 | 55 | 58 | 0.0 | 0.0 | 0.00 | 0.00 | 0.00 | 79 | 1012.3 |
| 20260831151531 | 53 | 61 | 0.0 | 0.0 | 0.00 | 0.00 | 0.00 | 80 | 1012.3 |
| 20260831150028 | 52 | 61 | 0.0 | 0.0 | 0.00 | 0.00 | 0.00 | 80 | 1012.4 |
| 20260831144525 | 51 | 61 | 0.0 | 0.0 | 0.00 | 0.00 | 0.00 | 79 | 1012.4 |
| 20260831143028 | 50 | 61 | 0.0 | 0.0 | 0.00 | 0.00 | 0.00 | 77 | 1012.4 |
| 20260831141524 | 49 | 61 | 0.0 | 0.0 | 0.00 | 0.00 | 0.00 | 75 | 1012.3 |
| 20260831140030 | 49 | 61 | 0.0 | 0.0 | 0.00 | 0.00 | 0.00 | 74 | 1012.3 |
| 20260831134535 | 49 | 61 | 0.0 | 0.0 | 0.00 | 0.00 | 0.00 | 73 | 1012.4 |
| 20260831133035 | 49 | 61 | 0.0 | 0.0 | 0.00 | 0.00 | 0.00 | 72 | 1012.5 |
| 20260831131541 | 50 | 61 | 0.0 | 0.0 | 0.00 | 0.00 | 0.00 | 72 | 1012.6 |
| 20260831130036 | 50 | 61 | 0.0 | 0.0 | 0.00 | 0.00 | 0.00 | 72 | 1012.7 |
| 20260831124536 | 50 | 61 | 0.0 | 0.0 | 0.00 | 0.00 | 0.00 | 72 | 1012.7 |
| 20260831123024 | 50 | 61 | 0.0 | 0.0 | 0.00 | 0.00 | 0.00 | 70 | 1012.7 |
| 20260831121520 | 50 | 61 | 0.0 | 0.0 | 0.00 | 0.00 | 0.00 | 70 | 1012.8 |
| 20260831120006 | 51 | 61 | 0.0 | 0.0 | 0.00 | 0.00 | 0.00 | 70 | 1012.8 |
| 20260831114505 | 51 | 62 | 0.0 | 0.0 | 0.00 | 0.00 | 0.00 | 69 | 1012.9 |
| 20260831113007 | 51 | 61 | 0.0 | 0.0 | 0.00 | 0.00 | 0.00 | 68 | 1013.0 |
| 20260831111513 | 51 | 61 | 0.0 | 0.0 | 0.00 | 0.00 | 0.00 | 68 | 1013.1 |
| 20260831110006 | 52 | 61 | 0.0 | 0.0 | 0.00 | 0.00 | 0.00 | 68 | 1013.2 |
| 20260831104505 | 52 | 61 | 0.0 | 0.0 | 0.00 | 0.00 | 0.00 | 68 | 1013.1 |
| 20260831103003 | 52 | 61 | 0.0 | 0.0 | 0.00 | 0.00 | 0.00 | 67 | 1013.2 |
| 20260831101510 | 53 | 61 | 0.0 | 0.0 | 0.00 | 0.00 | 0.00 | 68 | 1013.2 |
| 20260831100009 | 53 | 61 | 0.0 | 0.0 | 0.00 | 0.00 | 0.00 | 67 | 1013.4 |
| 20260831094511 | 53 | 61 | 0.0 | 0.0 | 0.00 | 0.00 | 0.00 | 67 | 1013.6 |
| 20260831093010 | 54 | 61 | 0.0 | 0.0 | 0.00 | 0.00 | 0.00 | 67 | 1013.7 |
| 20260831091507 | 54 | 61 | 0.0 | 0.0 | 0.00 | 0.00 | 0.00 | 67 | 1013.9 |
| 20260831090004 | 54 | 61 | 0.0 | 0.0 | 0.00 | 0.00 | 0.00 | 67 | 1014.1 |
| 20260831084509 | 54 | 61 | 0.0 | 0.0 | 0.00 | 0.00 | 0.00 | 67 | 1014.1 |
| 20260831083012 | 55 | 61 | 0.0 | 0.0 | 0.00 | 0.00 | 0.00 | 67 | 1014.2 |
| 20260831081519 | 55 | 61 | 0.0 | 0.0 | 0.00 | 0.00 | 0.00 | 67 | 1014.3 |
| 20260831080028 | 56 | 61 | 0.0 | 0.0 | 0.00 | 0.00 | 0.00 | 66 | 1014.4 |
| 20260831074516 | 56 | 61 | 0.0 | 0.0 | 0.00 | 0.00 | 0.00 | 66 | 1014.5 |
| 20260831073012 | 57 | 61 | 0.0 | 0.0 | 0.00 | 0.00 | 0.00 | 65 | 1014.6 |
| 20260831071509 | 58 | 61 | 0.0 | 0.0 | 0.00 | 0.00 | 0.00 | 64 | 1014.7 |
| 20260831070012 | 59 | 62 | 0.0 | 0.0 | 0.00 | 0.00 | 0.00 | 62 | 1014.9 |
| 20260831064522 | 60 | 61 | 0.0 | 0.0 | 0.00 | 0.00 | 0.00 | 61 | 1015.1 |
| 20260831063018 | 61 | 61 | 0.0 | 0.0 | 0.00 | 0.00 | 0.00 | 59 | 1015.1 |
| 20260831061527 | 62 | 61 | 0.0 | 0.0 | 0.00 | 0.00 | 0.00 | 58 | 1015.2 |
| 20260831060023 | 62 | 288 | 0.0 | 0.9 | 0.00 | 0.00 | 0.00 | 57 | 1015.4 |
| 20260831054518 | 63 | 302 | 0.0 | 0.9 | 0.00 | 0.00 | 0.00 | 56 | 1015.4 |
| 20260831053024 | 63 | 289 | 0.0 | 0.9 | 0.00 | 0.00 | 0.00 | 55 | 1015.6 |
| 20260831051511 | 63 | 302 | 0.0 | 2.6 | 0.00 | 0.00 | 0.00 | 54 | 1015.7 |
| 20260831050029 | 64 | 293 | 0.0 | 0.0 | 0.00 | 0.00 | 0.00 | 51 | 1015.8 |
| 20260831044527 | 65 | 286 | 0.0 | 0.9 | 0.00 | 0.00 | 0.00 | 51 | 1015.9 |
| 20260831043030 | 65 | 304 | 0.0 | 0.9 | 0.00 | 0.00 | 0.00 | 49 | 1016.0 |
| 20260831041525 | 66 | 49 | 0.0 | 0.9 | 0.00 | 0.00 | 0.00 | 48 | 1015.9 |
| 20260831040028 | 66 | 285 | 0.0 | 0.9 | 0.00 | 0.00 | 0.00 | 47 | 1015.9 |
| 20260831034521 | 67 | 119 | 0.0 | 0.0 | 0.00 | 0.00 | 0.00 | 47 | 1015.9 |
| 20260831033016 | 68 | 52 | 0.0 | 0.9 | 0.00 | 0.00 | 0.00 | 45 | 1015.8 |
| 20260831031513 | 68 | 53 | 0.0 | 0.9 | 0.00 | 0.00 | 0.00 | 44 | 1015.8 |
| 20260831030007 | 69 | 49 | 0.0 | 0.9 | 0.00 | 0.00 | 0.00 | 44 | 1015.8 |
| 20260831024508 | 70 | 50 | 0.0 | 0.9 | 0.00 | 0.00 | 0.00 | 43 | 1015.8 |
| 20260831023005 | 71 | 60 | 0.0 | 0.9 | 0.00 | 0.00 | 0.00 | 42 | 1015.9 |
| 20260831021508 | 72 | 23 | 0.0 | 0.9 | 0.00 | 0.00 | 0.00 | 41 | 1015.8 |
| 20260831020025 | 73 | 51 | 0.0 | 1.7 | 0.00 | 0.00 | 0.00 | 40 | 1015.9 |
| 20260831014527 | 73 | 316 | 0.0 | 1.7 | 0.00 | 0.00 | 0.00 | 39 | 1015.9 |
| 20260831013016 | 74 | 304 | 0.0 | 1.7 | 0.00 | 0.00 | 0.00 | 38 | 1016.0 |
| 20260831011517 | 74 | 48 | 0.0 | 3.5 | 0.00 | 0.00 | 0.00 | 38 | 1016.2 |
| 20260831010011 | 75 | 329 | 0.0 | 1.7 | 0.00 | 0.00 | 0.00 | 37 | 1016.3 |
| 20260831004507 | 75 | 66 | 0.0 | 0.9 | 0.00 | 0.00 | 0.00 | 36 | 1016.5 |
| 20260831003006 | 76 | 77 | 0.0 | 4.3 | 0.00 | 0.00 | 0.00 | 35 | 1016.6 |
| 20260831001527 | 77 | 302 | 0.0 | 0.9 | 0.00 | 0.00 | 0.00 | 34 | 1016.7 |
| 20260831000031 | 76 | 16 | 0.0 | 4.3 | 0.00 | 0.00 | 0.00 | 35 | 1016.9 |
| 20260830234535 | 76 | 13 | 0.0 | 2.6 | 0.00 | 0.00 | 0.00 | 35 | 1017.1 |
| 20260830233018 | 76 | 21 | 0.0 | 2.6 | 0.00 | 0.00 | 0.00 | 35 | 1017.3 |
| 20260830231516 | 76 | 18 | 0.9 | 4.3 | 0.00 | 0.00 | 0.00 | 34 | 1017.4 |
| 20260830230011 | 76 | 8 | 0.0 | 2.6 | 0.00 | 0.00 | 0.00 | 34 | 1017.5 |
| 20260830224532 | 75 | 77 | 0.0 | 3.5 | 0.00 | 0.00 | 0.00 | 35 | 1017.7 |
| 20260830223030 | 75 | 310 | 0.0 | 3.5 | 0.00 | 0.00 | 0.00 | 35 | 1018.1 |
| 20260830221543 | 74 | 317 | 1.7 | 6.1 | 0.00 | 0.00 | 0.00 | 33 | 1018.3 |
| 20260830220028 | 73 | 70 | 1.7 | 4.3 | 0.00 | 0.00 | 0.00 | 35 | 1018.5 |
| 20260830214523 | 74 | 49 | 0.9 | 3.5 | 0.00 | 0.00 | 0.00 | 35 | 1018.7 |
| 20260830213019 | 73 | 290 | 0.9 | 4.3 | 0.00 | 0.00 | 0.00 | 36 | 1019.0 |
| 20260830211518 | 72 | 335 | 0.0 | 7.8 | 0.00 | 0.00 | 0.00 | 37 | 1019.3 |
| 20260830210012 | 72 | 328 | 0.9 | 2.6 | 0.00 | 0.00 | 0.00 | 38 | 1019.3 |
| 20260830204511 | 71 | 315 | 0.0 | 4.3 | 0.00 | 0.00 | 0.00 | 38 | 1019.4 |